sat.trackr.live / text

‹ back to catalog

GJZ 02

NORAD 62291 · 2024-238B

PAYLOAD ACTIVE UNKNOWN

§ Identity

Operator
Country
PRC
Launch date
2024-12-12
Launch site
JSC
Launch vehicle
Mass (kg)
RCS (m²)

External: N2YO · Heavens-Above · Gunter

§ Orbital elements

Epoch: 2026-09-22T20:12:56.345184Z

Period
104.71 min
Inclination
59.9191°
Eccentricity
0.0007029
Mean motion
13.75214454 rev/d
Perigee alt
975.7 km
Apogee alt
986.1 km
Semi-major
7,359.0 km
B*
6.2538e-5
RAAN
315.2349°
Arg perigee
86.5403°
Mean anomaly
273.6409°
Rev number
8,971

§ Raw data

GJZ 021 62291U 24238B   26265.84231881 -.00000059  00000+0  62538-4 0  99972 62291  59.9191 315.2349 0007029  86.5403 273.6409 13.75214454 89719

JSON: /api/v1/satellites/62291 · /tle

For live sub-satellite position, see the globe view (requires WebGL).

§ Visibility from observer

Set your observer location to see the next 7 days of passes ≥ 10°. The values pass through the URL so the page stays shareable.

No JS? Fill the form by hand. The geolocation button needs JavaScript.